Time,TemperatureF,DewpointF,PressureIn,WindDirection,WindDirectionDegrees,WindSpeedMPH,WindSpeedGustMPH,Humidity,HourlyPrecipIn,Conditions,Clouds,dailyrainin,SolarRadiationWatts/m^2,SoftwareType,DateUTC
2013-05-26 00:11:00,41.0,34.0,-100.00,WNW,284,2.0,4.0,77,0.00,,,0.00,1.000000,,2013-05-26 08:11:00,
2013-05-26 00:21:00,41.0,34.0,-100.00,WNW,284,2.0,4.0,77,0.00,,,0.00,1.000000,,2013-05-26 08:21:00,
2013-05-26 00:32:00,41.0,34.0,-100.00,WNW,284,2.0,4.0,77,0.00,,,0.00,1.000000,,2013-05-26 08:32:00,
2013-05-26 00:42:00,41.0,34.0,-100.00,WNW,284,2.0,4.0,77,0.00,,,0.00,1.000000,,2013-05-26 08:42:00,
2013-05-26 00:52:00,41.0,34.0,-100.00,WNW,284,2.0,4.0,77,0.00,,,0.00,1.000000,,2013-05-26 08:52:00,
2013-05-26 01:11:00,40.0,35.0,-100.00,NW,322,3.0,4.0,83,0.00,,,0.00,0.000000,,2013-05-26 09:11:00,
2013-05-26 01:21:00,40.0,35.0,-100.00,NW,322,3.0,4.0,83,0.00,,,0.00,0.000000,,2013-05-26 09:21:00,
2013-05-26 01:33:00,40.0,35.0,-100.00,NW,322,3.0,4.0,83,0.00,,,0.00,0.000000,,2013-05-26 09:33:00,
2013-05-26 01:42:00,40.0,35.0,-100.00,NW,322,3.0,4.0,83,0.00,,,0.00,0.000000,,2013-05-26 09:42:00,
2013-05-26 01:52:00,40.0,35.0,-100.00,NW,322,3.0,4.0,83,0.00,,,0.00,0.000000,,2013-05-26 09:52:00,
2013-05-26 02:12:00,39.0,34.0,-100.00,NW,311,1.0,4.0,82,0.00,,,0.00,0.000000,,2013-05-26 10:12:00,
2013-05-26 02:22:00,39.0,34.0,-100.00,NW,311,1.0,4.0,82,0.00,,,0.00,0.000000,,2013-05-26 10:22:00,
2013-05-26 02:32:00,39.0,34.0,-100.00,NW,311,1.0,4.0,82,0.00,,,0.00,0.000000,,2013-05-26 10:32:00,
2013-05-26 02:42:00,39.0,34.0,-100.00,NW,311,1.0,4.0,82,0.00,,,0.00,0.000000,,2013-05-26 10:42:00,
2013-05-26 02:52:00,39.0,34.0,-100.00,NW,311,1.0,4.0,82,0.00,,,0.00,0.000000,,2013-05-26 10:52:00,
2013-05-26 03:11:00,39.0,35.0,-100.00,NW,323,4.0,5.0,86,0.00,,,0.00,0.000000,,2013-05-26 11:11:00,
2013-05-26 03:22:00,39.0,35.0,-100.00,NW,323,4.0,5.0,86,0.00,,,0.00,0.000000,,2013-05-26 11:22:00,
2013-05-26 03:32:00,39.0,35.0,-100.00,NW,323,4.0,5.0,86,0.00,,,0.00,0.000000,,2013-05-26 11:32:00,
2013-05-26 03:42:00,39.0,35.0,-100.00,NW,323,4.0,5.0,86,0.00,,,0.00,0.000000,,2013-05-26 11:42:00,
2013-05-26 03:52:00,39.0,35.0,-100.00,NW,323,4.0,5.0,86,0.00,,,0.00,0.000000,,2013-05-26 11:52:00,
2013-05-26 04:11:00,38.0,34.0,-100.00,NW,322,3.0,4.0,85,0.00,,,0.00,0.000000,,2013-05-26 12:11:00,
2013-05-26 04:21:00,38.0,34.0,-100.00,NW,322,3.0,4.0,85,0.00,,,0.00,0.000000,,2013-05-26 12:21:00,
2013-05-26 04:32:00,38.0,34.0,-100.00,NW,322,3.0,4.0,85,0.00,,,0.00,0.000000,,2013-05-26 12:32:00,
2013-05-26 04:41:00,38.0,34.0,-100.00,NW,322,3.0,4.0,85,0.00,,,0.00,0.000000,,2013-05-26 12:41:00,
2013-05-26 04:52:00,38.0,34.0,-100.00,NW,322,3.0,4.0,85,0.00,,,0.00,0.000000,,2013-05-26 12:52:00,
2013-05-26 05:11:00,37.0,34.0,-100.00,NW,322,1.0,4.0,87,0.00,,,0.00,0.000000,,2013-05-26 13:11:00,
2013-05-26 05:21:00,37.0,34.0,-100.00,NW,322,1.0,4.0,87,0.00,,,0.00,0.000000,,2013-05-26 13:21:00,
2013-05-26 05:32:00,37.0,34.0,-100.00,NW,322,1.0,4.0,87,0.00,,,0.00,0.000000,,2013-05-26 13:32:00,
2013-05-26 05:42:00,37.0,34.0,-100.00,NW,322,1.0,4.0,87,0.00,,,0.00,0.000000,,2013-05-26 13:42:00,
2013-05-26 05:52:00,37.0,34.0,-100.00,NW,322,1.0,4.0,87,0.00,,,0.00,0.000000,,2013-05-26 13:52:00,
2013-05-26 06:11:00,37.0,35.0,-100.00,NNE,15,1.0,4.0,91,0.00,,,0.00,13.000000,,2013-05-26 14:11:00,
2013-05-26 06:21:00,37.0,35.0,-100.00,NNE,15,1.0,4.0,91,0.00,,,0.00,13.000000,,2013-05-26 14:21:00,
2013-05-26 06:32:00,37.0,35.0,-100.00,NNE,15,1.0,4.0,91,0.00,,,0.00,13.000000,,2013-05-26 14:32:00,
2013-05-26 06:41:00,37.0,35.0,-100.00,NNE,15,1.0,4.0,91,0.00,,,0.00,13.000000,,2013-05-26 14:41:00,
2013-05-26 06:51:00,37.0,35.0,-100.00,NNE,15,1.0,4.0,91,0.00,,,0.00,13.000000,,2013-05-26 14:51:00,
2013-05-26 07:12:00,42.0,37.0,-100.00,NNE,26,3.0,6.0,83,0.00,,,0.00,80.000000,,2013-05-26 15:12:00,
2013-05-26 07:22:00,42.0,37.0,-100.00,NNE,26,3.0,6.0,83,0.00,,,0.00,80.000000,,2013-05-26 15:22:00,
2013-05-26 07:33:00,42.0,37.0,-100.00,NNE,26,3.0,6.0,83,0.00,,,0.00,80.000000,,2013-05-26 15:33:00,
2013-05-26 07:43:00,42.0,37.0,-100.00,NNE,26,3.0,6.0,83,0.00,,,0.00,80.000000,,2013-05-26 15:43:00,
2013-05-26 07:53:00,42.0,37.0,-100.00,NNE,26,3.0,6.0,83,0.00,,,0.00,80.000000,,2013-05-26 15:53:00,
2013-05-26 08:12:00,43.0,38.0,-100.00,East,99,2.0,6.0,83,0.00,,,0.00,137.000000,,2013-05-26 16:12:00,
2013-05-26 08:23:00,43.0,38.0,-100.00,East,99,2.0,6.0,83,0.00,,,0.00,137.000000,,2013-05-26 16:23:00,
2013-05-26 08:33:00,43.0,38.0,-100.00,East,99,2.0,6.0,83,0.00,,,0.00,137.000000,,2013-05-26 16:33:00,
2013-05-26 08:42:00,43.0,38.0,-100.00,East,99,2.0,6.0,83,0.00,,,0.00,137.000000,,2013-05-26 16:42:00,
2013-05-26 08:52:00,43.0,38.0,-100.00,East,99,2.0,6.0,83,0.00,,,0.00,137.000000,,2013-05-26 16:52:00,
2013-05-26 09:11:00,44.0,38.0,-100.00,SSE,152,0.0,4.0,79,0.00,,,0.00,153.000000,,2013-05-26 17:11:00,
2013-05-26 09:22:00,44.0,38.0,-100.00,SSE,152,0.0,4.0,79,0.00,,,0.00,153.000000,,2013-05-26 17:22:00,
2013-05-26 09:32:00,44.0,38.0,-100.00,SSE,152,0.0,4.0,79,0.00,,,0.00,153.000000,,2013-05-26 17:32:00,
2013-05-26 09:42:00,44.0,38.0,-100.00,SSE,152,0.0,4.0,79,0.00,,,0.00,153.000000,,2013-05-26 17:42:00,
2013-05-26 09:52:00,44.0,38.0,-100.00,SSE,152,0.0,4.0,79,0.00,,,0.00,153.000000,,2013-05-26 17:52:00,
2013-05-26 10:12:00,46.0,40.0,-100.00,NE,34,3.0,7.0,78,0.00,,,0.00,303.000000,,2013-05-26 18:12:00,
2013-05-26 10:21:00,46.0,40.0,-100.00,NE,34,3.0,7.0,78,0.00,,,0.00,303.000000,,2013-05-26 18:21:00,
2013-05-26 10:31:00,46.0,40.0,-100.00,NE,34,3.0,7.0,78,0.00,,,0.00,303.000000,,2013-05-26 18:31:00,
2013-05-26 10:42:00,46.0,40.0,-100.00,NE,34,3.0,7.0,78,0.00,,,0.00,303.000000,,2013-05-26 18:42:00,
2013-05-26 10:52:00,46.0,40.0,-100.00,NE,34,3.0,7.0,78,0.00,,,0.00,303.000000,,2013-05-26 18:52:00,
2013-05-26 11:11:00,46.0,38.0,-100.00,ENE,78,3.0,5.0,74,0.00,,,0.00,250.000000,,2013-05-26 19:11:00,
2013-05-26 11:22:00,46.0,38.0,-100.00,ENE,78,3.0,5.0,74,0.00,,,0.00,250.000000,,2013-05-26 19:22:00,
2013-05-26 11:32:00,46.0,38.0,-100.00,ENE,78,3.0,5.0,74,0.00,,,0.00,250.000000,,2013-05-26 19:32:00,
2013-05-26 11:42:00,46.0,38.0,-100.00,ENE,78,3.0,5.0,74,0.00,,,0.00,250.000000,,2013-05-26 19:42:00,
2013-05-26 11:52:00,46.0,38.0,-100.00,ENE,78,3.0,5.0,74,0.00,,,0.00,250.000000,,2013-05-26 19:52:00,
2013-05-26 12:11:00,52.0,43.0,-100.00,ENE,77,2.0,5.0,70,0.00,,,0.00,462.000000,,2013-05-26 20:11:00,
2013-05-26 12:21:00,52.0,43.0,-100.00,ENE,77,2.0,5.0,70,0.00,,,0.00,462.000000,,2013-05-26 20:21:00,
2013-05-26 12:32:00,52.0,43.0,-100.00,ENE,77,2.0,5.0,70,0.00,,,0.00,462.000000,,2013-05-26 20:32:00,
2013-05-26 12:41:00,52.0,43.0,-100.00,ENE,77,2.0,5.0,70,0.00,,,0.00,462.000000,,2013-05-26 20:41:00,
2013-05-26 12:52:00,52.0,43.0,-100.00,ENE,77,2.0,5.0,70,0.00,,,0.00,462.000000,,2013-05-26 20:52:00,
2013-05-26 13:11:00,52.0,41.0,-100.00,ESE,123,2.0,7.0,67,0.00,,,0.00,455.000000,,2013-05-26 21:11:00,
2013-05-26 13:22:00,52.0,41.0,-100.00,ESE,123,2.0,7.0,67,0.00,,,0.00,455.000000,,2013-05-26 21:22:00,
2013-05-26 13:33:00,52.0,41.0,-100.00,ESE,123,2.0,7.0,67,0.00,,,0.00,455.000000,,2013-05-26 21:33:00,
2013-05-26 13:43:00,52.0,41.0,-100.00,ESE,123,2.0,7.0,67,0.00,,,0.00,455.000000,,2013-05-26 21:43:00,
2013-05-26 13:53:00,52.0,41.0,-100.00,ESE,123,2.0,7.0,67,0.00,,,0.00,455.000000,,2013-05-26 21:53:00,
2013-05-26 14:12:00,55.0,38.0,-100.00,ESE,106,2.0,6.0,52,0.00,,,0.00,644.000000,,2013-05-26 22:12:00,
2013-05-26 14:23:00,55.0,38.0,-100.00,ESE,106,2.0,6.0,52,0.00,,,0.00,644.000000,,2013-05-26 22:23:00,
2013-05-26 14:33:00,55.0,38.0,-100.00,ESE,106,2.0,6.0,52,0.00,,,0.00,644.000000,,2013-05-26 22:33:00,
2013-05-26 14:42:00,55.0,38.0,-100.00,ESE,106,2.0,6.0,52,0.00,,,0.00,644.000000,,2013-05-26 22:42:00,
2013-05-26 14:53:00,55.0,38.0,-100.00,ESE,106,2.0,6.0,52,0.00,,,0.00,644.000000,,2013-05-26 22:53:00,
2013-05-26 15:11:00,57.0,38.0,-100.00,ESE,116,4.0,7.0,48,0.00,,,0.00,505.000000,,2013-05-26 23:11:00,
2013-05-26 15:22:00,57.0,38.0,-100.00,ESE,116,4.0,7.0,48,0.00,,,0.00,505.000000,,2013-05-26 23:22:00,
2013-05-26 15:32:00,57.0,38.0,-100.00,ESE,116,4.0,7.0,48,0.00,,,0.00,505.000000,,2013-05-26 23:32:00,
2013-05-26 16:11:00,52.0,33.0,-100.00,SSE,149,5.0,7.0,48,-99.99,,,0.00,575.000000,,2013-05-27 00:11:00,
2013-05-26 16:21:00,52.0,33.0,-100.00,SSE,149,5.0,7.0,48,-99.99,,,0.00,575.000000,,2013-05-27 00:21:00,
2013-05-26 16:31:00,52.0,33.0,-100.00,SSE,149,5.0,7.0,48,-99.99,,,0.00,575.000000,,2013-05-27 00:31:00,
2013-05-26 16:41:00,52.0,33.0,-100.00,SSE,149,5.0,7.0,48,-99.99,,,0.00,575.000000,,2013-05-27 00:41:00,
2013-05-26 16:52:00,52.0,33.0,-100.00,SSE,149,5.0,7.0,48,-99.99,,,0.00,575.000000,,2013-05-27 00:52:00,
2013-05-26 17:11:00,52.0,39.0,-100.00,SSE,162,3.0,7.0,61,0.00,,,0.00,295.000000,,2013-05-27 01:11:00,
2013-05-26 17:22:00,52.0,39.0,-100.00,SSE,162,3.0,7.0,61,0.00,,,0.00,295.000000,,2013-05-27 01:22:00,
2013-05-26 17:31:00,52.0,39.0,-100.00,SSE,162,3.0,7.0,61,0.00,,,0.00,295.000000,,2013-05-27 01:31:00,
2013-05-26 17:42:00,52.0,39.0,-100.00,SSE,162,3.0,7.0,61,0.00,,,0.00,295.000000,,2013-05-27 01:42:00,
2013-05-26 17:52:00,52.0,39.0,-100.00,SSE,162,3.0,7.0,61,0.00,,,0.00,295.000000,,2013-05-27 01:52:00,
2013-05-26 18:11:00,49.0,42.0,-100.00,SSE,168,2.0,6.0,78,0.00,,,0.00,315.000000,,2013-05-27 02:11:00,
2013-05-26 18:21:00,49.0,42.0,-100.00,SSE,168,2.0,6.0,78,0.00,,,0.00,315.000000,,2013-05-27 02:21:00,
2013-05-26 18:32:00,49.0,42.0,-100.00,SSE,168,2.0,6.0,78,0.00,,,0.00,315.000000,,2013-05-27 02:32:00,
2013-05-26 18:42:00,49.0,42.0,-100.00,SSE,168,2.0,6.0,78,0.00,,,0.00,315.000000,,2013-05-27 02:42:00,
2013-05-26 18:52:00,49.0,42.0,-100.00,SSE,168,2.0,6.0,78,0.00,,,0.00,315.000000,,2013-05-27 02:52:00,
2013-05-26 19:11:00,53.0,41.0,-100.00,East,94,3.0,6.0,63,0.00,,,0.00,337.000000,,2013-05-27 03:11:00,
2013-05-26 19:21:00,53.0,41.0,-100.00,East,94,3.0,6.0,63,0.00,,,0.00,337.000000,,2013-05-27 03:21:00,
2013-05-26 19:42:00,53.0,41.0,-100.00,East,94,3.0,6.0,63,0.00,,,0.00,337.000000,,2013-05-27 03:42:00,
2013-05-26 19:53:00,53.0,41.0,-100.00,East,94,3.0,6.0,63,0.00,,,0.00,337.000000,,2013-05-27 03:53:00,
2013-05-26 20:12:00,50.0,38.0,-100.00,SE,145,2.0,6.0,64,0.00,,,0.00,398.000000,,2013-05-27 04:12:00,
2013-05-26 20:23:00,50.0,38.0,-100.00,SE,145,2.0,6.0,64,0.00,,,0.00,398.000000,,2013-05-27 04:23:00,
2013-05-26 20:33:00,50.0,38.0,-100.00,SE,145,2.0,6.0,64,0.00,,,0.00,398.000000,,2013-05-27 04:33:00,
2013-05-26 20:42:00,50.0,38.0,-100.00,SE,145,2.0,6.0,64,0.00,,,0.00,398.000000,,2013-05-27 04:42:00,
2013-05-26 20:52:00,50.0,38.0,-100.00,SE,145,2.0,6.0,64,0.00,,,0.00,398.000000,,2013-05-27 04:52:00,
2013-05-26 21:12:00,45.0,37.0,-100.00,SSE,159,3.0,5.0,73,0.00,,,0.00,173.000000,,2013-05-27 05:12:00,
2013-05-26 21:22:00,45.0,37.0,-100.00,SSE,159,3.0,5.0,73,0.00,,,0.00,173.000000,,2013-05-27 05:22:00,
2013-05-26 21:32:00,45.0,37.0,-100.00,SSE,159,3.0,5.0,73,0.00,,,0.00,173.000000,,2013-05-27 05:32:00,
2013-05-26 21:42:00,45.0,37.0,-100.00,SSE,159,3.0,5.0,73,0.00,,,0.00,173.000000,,2013-05-27 05:42:00,
2013-05-26 21:52:00,45.0,37.0,-100.00,SSE,159,3.0,5.0,73,0.00,,,0.00,173.000000,,2013-05-27 05:52:00,
2013-05-26 22:11:00,45.0,38.0,-100.00,ESE,113,1.0,4.0,76,0.00,,,0.00,52.000000,,2013-05-27 06:11:00,
2013-05-26 22:21:00,45.0,38.0,-100.00,ESE,113,1.0,4.0,76,0.00,,,0.00,52.000000,,2013-05-27 06:21:00,
2013-05-26 22:32:00,45.0,38.0,-100.00,ESE,113,1.0,4.0,76,0.00,,,0.00,52.000000,,2013-05-27 06:32:00,
2013-05-26 22:41:00,45.0,38.0,-100.00,ESE,113,1.0,4.0,76,0.00,,,0.00,52.000000,,2013-05-27 06:41:00,
2013-05-26 22:52:00,45.0,38.0,-100.00,ESE,113,1.0,4.0,76,0.00,,,0.00,52.000000,,2013-05-27 06:52:00,
2013-05-26 23:11:00,42.0,39.0,-100.00,SE,136,1.0,3.0,89,0.00,,,0.00,7.000000,,2013-05-27 07:11:00,
2013-05-26 23:21:00,42.0,39.0,-100.00,SE,136,1.0,3.0,89,0.00,,,0.00,7.000000,,2013-05-27 07:21:00,
2013-05-26 23:31:00,42.0,39.0,-100.00,SE,136,1.0,3.0,89,0.00,,,0.00,7.000000,,2013-05-27 07:31:00,
2013-05-26 23:41:00,42.0,39.0,-100.00,SE,136,1.0,3.0,89,0.00,,,0.00,7.000000,,2013-05-27 07:41:00,
2013-05-26 23:52:00,42.0,39.0,-100.00,SE,136,1.0,3.0,89,0.00,,,0.00,7.000000,,2013-05-27 07:52:00,